Flag for China

Past Weather in 32°03'42"N, 118°45'46"E, China — Yesterday and Last 2 Weeks

Now
79 °F

Fog.


Feels Like: 83 °F
Forecast: 90 / 76 °F
Wind: 6 mph from South

Location: Nanjing

Current Time: Jul 12, 2020 at 2:51:56 am

Latest Report: Jul 12, 2020 at 2:00 am


Visibility: 2 mi

Pressure: 29.59 "Hg

Humidity: 100%

Dew Point: 79 °F

Location of 32°03'42"N, 118°45'46"ELocation

Past Weather in 32°03'42"N, 118°45'46"E — Graph

°F

32°03'42"N, 118°45'46"E Temperature Yesterday

Maximum temperature yesterday: 79 °F (at 12:00 am)
Minimum temperature yesterday: 75 °F (at 8:00 am)
Average temperature yesterday: 78 °F

High & Low Weather Summary for the Past Weeks

 TemperatureHumidityPressure
High90 °F (Jul 7, 1:00 pm)100% (Jun 27, 1:00 am)29.80 "Hg (Jun 27, 1:00 am)
Low68 °F (Jun 30, 4:00 am)55% (Jun 30, 3:00 pm)29.45 "Hg (Jun 29, 2:00 am)
Average78 °F91%29.62 "Hg
* Reported Jun 27 1:00 am — Jul 12 1:00 am, 32°03'42"N, 118°45'46"E. Weather by CustomWeather, © 2020

Note: Actual official high and low records may vary slightly from our data, if they occured in-between our weather recording intervals... More about our weather records

32°03'42"N, 118°45'46"E Weather History for the Previous 24 Hours

Scroll right to see more
 ConditionsComfort  
Time TempWeatherWind HumidityBarometerVisibility
1:00 am
Sun, Jul 12
79 °FFog.3 mph100%29.62 "Hg2 mi
12:00 am79 °FFog.3 mph100%29.62 "Hg2 mi
11:00 pm
Sat, Jul 11
79 °FFog.6 mph100%29.65 "Hg2 mi
10:00 pm79 °FFog.6 mph100%29.65 "Hg2 mi
9:00 pm79 °FFog.6 mph100%29.65 "Hg2 mi
8:00 pm79 °FFog.6 mph100%29.62 "Hg2 mi
7:00 pm79 °FLight rain. Fog.8 mph100%29.62 "Hg1 mi
6:00 pm79 °FLight rain. Fog.8 mph100%29.62 "Hg2 mi
5:00 pm79 °FLight rain. Fog.8 mph100%29.62 "Hg3 mi
4:00 pm79 °FLight rain. Mostly cloudy.8 mph100%29.62 "Hg4 mi
3:00 pm79 °FMostly cloudy.8 mph100%29.62 "Hg4 mi
2:00 pm77 °FLight rain. Mostly cloudy.8 mph100%29.65 "Hg4 mi
1:00 pm77 °FLight rain. Mostly cloudy.6 mph100%29.65 "HgN/A
12:00 pm77 °FLight rain. More clouds than sun.6 mph100%29.65 "HgN/A
11:00 am75 °FLight rain. More clouds than sun.8 mph100%29.65 "Hg5 mi
10:00 am75 °FHeavy rain. Fog.10 mph100%29.65 "Hg1 mi
9:00 am77 °FLight rain. Mostly cloudy.10 mph100%29.65 "Hg4 mi
8:00 am75 °FLight rain. Fog.8 mph100%29.65 "Hg2 mi
7:00 am77 °FLight rain. Fog.6 mph100%29.65 "Hg3 mi
6:00 am77 °FLight rain. Mostly cloudy.6 mph100%29.65 "Hg4 mi
5:00 am77 °FFog.8 mph100%29.65 "Hg2 mi
4:00 am77 °FFog.6 mph100%29.62 "Hg1 mi
3:00 am77 °FFog.6 mph100%29.62 "Hg1 mi
2:00 am77 °FLight rain. Fog.6 mph100%29.65 "Hg2 mi
Weather by CustomWeather, © 2020

See weather overview